EW8742 Weather Reports


time (UTC)temp
C
wind
direction
speed
KPH
gust
KPH
rain 1hr
cm
rain 24hr
cm
rain mn
cm
humidity
%
barometer
mb
20260506132025 11 46 3.2 11.3 0.00 0.00 0.00 70 1009.2
20260506131524 11 124 4.8 11.3 0.00 0.00 0.00 69 1009.2
20260506131021 11 105 4.8 12.9 0.00 0.00 0.00 70 1009.1
20260506130520 11 89 4.8 12.9 0.00 0.00 0.00 67 1009.2
20260506130020 11 89 4.8 14.5 0.00 0.00 0.00 67 1009.2
20260506125517 11 98 4.8 14.5 0.00 0.00 0.00 67 1009.2
20260506125016 11 135 4.8 11.3 0.00 0.00 0.00 65 1009.1
20260506124517 11 128 4.8 14.5 0.00 0.00 0.00 65 1009.2
20260506124010 11 131 4.8 14.5 0.00 0.00 0.00 63 1009.1
20260506123510 11 103 4.8 11.3 0.00 0.00 0.00 64 1009.1
20260506123010 11 117 3.2 9.7 0.00 0.00 0.00 63 1009.0
20260506122506 11 152 4.8 11.3 0.00 0.00 0.00 64 1009.1
20260506122008 11 59 4.8 11.3 0.00 0.00 0.00 64 1009.1
20260506121507 11 40 4.8 11.3 0.00 0.00 0.00 64 1009.1
20260506121004 12 60 4.8 11.3 0.00 0.00 0.00 64 1009.0
20260506120504 12 122 4.8 11.3 0.00 0.00 0.00 63 1009.0
20260506115505 12 89 4.8 14.5 0.00 0.00 0.00 62 1008.9
20260506115004 12 117 4.8 12.9 0.00 0.00 0.00 63 1008.8
20260506114505 12 126 4.8 12.9 0.00 0.00 0.00 63 1008.8
20260506114004 12 51 4.8 9.7 0.00 0.00 0.00 64 1008.8
20260506113006 12 98 4.8 16.1 0.00 0.00 0.00 61 1008.7
20260506112504 12 171 4.8 16.1 0.00 0.00 0.00 61 1008.8
20260506112001 12 28 4.8 12.9 0.00 0.00 0.00 60 1008.8
20260506111500 11 135 4.8 11.3 0.00 0.00 0.00 61 1008.8
20260506111000 11 114 3.2 9.7 0.00 0.00 0.00 62 1008.7
20260506110458 11 135 3.2 11.3 0.00 0.00 0.00 65 1008.7
20260506105958 11 35 3.2 11.3 0.00 0.00 0.00 64 1008.7
20260506105459 11 117 4.8 11.3 0.00 0.00 0.00 63 1008.8
20260506104957 11 117 4.8 11.3 0.00 0.00 0.00 65 1008.8
20260506104456 11 35 4.8 16.1 0.00 0.00 0.00 63 1008.7
20260506103959 11 46 4.8 16.1 0.00 0.00 0.00 63 1008.7
20260506103455 11 63 4.8 11.3 0.00 0.00 0.00 63 1008.7
20260506102954 11 95 4.8 9.7 0.00 0.00 0.00 64 1008.6
20260506101953 11 8 4.8 12.9 0.00 0.00 0.00 63 1008.5
20260506101453 11 68 6.4 12.9 0.00 0.00 0.00 63 1008.5
20260506100952 11 44 6.4 12.9 0.00 0.00 0.00 63 1008.5
20260506100446 11 60 4.8 11.3 0.00 0.00 0.00 63 1008.5
20260506095946 11 74 4.8 12.9 0.00 0.00 0.00 64 1008.5
20260506095446 11 117 4.8 12.9 0.00 0.00 0.00 65 1008.5
20260506094941 11 46 6.4 14.5 0.00 0.00 0.00 64 1008.5
20260506094439 11 76 4.8 14.5 0.00 0.00 0.00 63 1008.4
20260506093941 11 96 3.2 9.7 0.00 0.00 0.00 66 1008.4
20260506093434 11 1 3.2 8.0 0.00 0.00 0.00 67 1008.4
20260506092934 11 102 3.2 8.0 0.00 0.00 0.00 66 1008.3
20260506092432 11 81 3.2 8.0 0.00 0.00 0.00 67 1008.3
20260506091928 11 75 4.8 8.0 0.00 0.00 0.00 67 1008.4
20260506091428 11 51 4.8 8.0 0.00 0.00 0.00 67 1008.3
20260506090928 10 89 4.8 8.0 0.00 0.00 0.00 67 1008.3
20260506090426 10 108 4.8 16.1 0.00 0.00 0.00 67 1008.3
20260506085925 10 54 4.8 16.1 0.00 0.00 0.00 67 1008.2
20260506084923 10 135 4.8 12.9 0.00 0.00 0.00 67 1008.2
20260506084424 10 102 4.8 12.9 0.00 0.00 0.00 68 1008.1
20260506083931 10 20 4.8 12.9 0.00 0.00 0.00 69 1008.1
20260506083421 10 60 4.8 12.9 0.00 0.00 0.00 70 1008.6
20260506082921 10 46 4.8 16.1 0.00 0.00 0.00 71 1008.0
20260506082421 10 46 4.8 16.1 0.00 0.00 0.00 71 1007.9
20260506081916 10 117 4.8 14.5 0.00 0.00 0.00 73 1007.9
20260506081417 10 76 4.8 12.9 0.00 0.00 0.00 75 1007.9
20260506080916 10 21 4.8 12.9 0.00 0.00 0.00 76 1007.8
20260506080425 10 210 4.8 12.9 0.00 0.00 0.00 75 1007.9
20260506073413 10 115 3.2 12.9 0.00 0.00 0.00 79 1007.8
20260506072915 10 53 4.8 12.9 0.00 0.00 0.00 79 1007.9
20260506072414 10 63 4.8 12.9 0.00 0.00 0.00 81 1007.8
20260506071907 10 351 4.8 12.9 0.00 0.00 0.00 81 1007.8
20260506071421 10 102 4.8 11.3 0.00 0.00 0.00 82 1007.7
20260506070905 10 157 3.2 11.3 0.00 0.00 0.00 82 1007.7
20260506070406 10 336 4.8 16.1 0.00 0.00 0.00 83 1007.7
20260506062359 9 20 3.2 8.0 0.00 0.00 0.00 83 1007.7
20260506061900 9 46 4.8 17.7 0.00 0.00 0.00 82 1007.7
20260506060359 9 11 4.8 11.3 0.00 0.00 0.00 81 1007.6
20260506051359 9 25 3.2 8.0 0.00 0.00 0.00 78 1007.6
20260506050859 9 46 3.2 6.4 0.00 0.00 0.00 78 1007.6
20260506050401 9 295 1.6 6.4 0.00 0.00 0.00 80 1007.5
20260506044352 9 63 1.6 6.4 0.00 0.00 0.00 82 1007.5
20260506043847 9 108 3.2 8.0 0.00 0.00 0.00 82 1007.4
20260506043348 9 89 3.2 9.7 0.00 0.00 0.00 83 1007.4
20260506042848 9 1 3.2 9.7 0.00 0.00 0.00 83 1007.4
20260506042347 9 108 3.2 8.0 0.00 0.00 0.00 83 1007.4
20260506041846 9 352 3.2 9.7 0.00 0.00 0.00 84 1007.4
20260506041342 9 9 3.2 9.7 0.00 0.00 0.00 84 1007.3
20260506040843 9 345 3.2 9.7 0.00 0.00 0.00 84 1007.4
20260506040341 9 11 3.2 9.7 0.00 0.00 0.00 84 1007.4
20260506035835 9 44 3.2 9.7 0.00 0.00 0.00 84 1007.3
20260506035335 9 344 4.8 12.9 0.00 0.00 0.00 84 1007.3
20260506034836 9 13 4.8 12.9 0.00 0.00 0.00 84 1007.3
20260506034333 9 58 4.8 12.9 0.00 0.00 0.00 84 1007.4
20260506033831 9 331 4.8 12.9 0.00 0.00 0.00 84 1007.5
20260506032330 9 1 6.4 12.9 0.00 0.00 0.00 85 1007.6
20260506031827 9 1 6.4 12.9 0.00 0.00 0.00 85 1007.6
20260506031322 9 335 4.8 14.5 0.00 0.00 0.00 85 1007.6
20260506030823 9 44 6.4 14.5 0.00 0.00 0.00 85 1007.6
20260506030324 9 15 4.8 12.9 0.00 0.00 0.00 86 1007.6
20260506025321 9 89 6.4 14.5 0.00 0.00 0.00 86 1007.8
20260506024820 9 8 4.8 14.5 0.00 0.00 0.00 86 1007.8
20260506024316 9 15 6.4 14.5 0.00 0.00 0.00 86 1007.8
20260506023815 9 314 6.4 14.5 0.00 0.00 0.00 86 1007.8
20260506023314 9 354 6.4 16.1 0.00 0.00 0.00 86 1007.8
20260506022811 10 354 6.4 16.1 0.00 0.00 0.00 86 1007.8
20260506021812 10 8 6.4 14.5 0.00 0.00 0.00 86 1007.8
20260506021306 10 32 6.4 14.5 0.00 0.00 0.00 87 1008.0
20260506020808 10 28 6.4 14.5 0.00 0.00 0.00 87 1007.9
20260506020308 10 20 4.8 12.9 0.00 0.00 0.00 87 1007.9
20260506015803 10 354 4.8 12.9 0.00 0.00 0.00 87 1008.0
20260506015305 10 89 6.4 16.1 0.00 0.00 0.00 87 1008.1
20260506014804 10 98 6.4 16.1 0.00 0.00 0.00 86 1008.1
20260506014301 10 46 4.8 17.7 0.00 0.00 0.00 86 1008.2
20260506013801 10 30 4.8 17.7 0.00 0.00 0.00 86 1008.2
20260506012256 10 46 4.8 12.9 0.00 0.00 0.00 86 1008.2
20260506011757 10 6 6.4 16.1 0.00 0.00 0.00 86 1008.2
20260506010805 10 18 6.4 14.5 0.00 0.00 0.00 85 1008.3
20260506010254 10 46 6.4 17.7 0.00 0.00 0.00 85 1008.3
20260506005751 9 39 6.4 17.7 0.00 0.00 0.00 84 1008.3
20260506005250 9 350 6.4 16.1 0.00 0.00 0.00 84 1008.3
20260506004750 9 25 6.4 17.7 0.00 0.00 0.00 84 1008.4
20260506004249 9 32 4.8 17.7 0.00 0.00 0.00 84 1008.4
20260506003750 9 59 4.8 14.5 0.00 0.00 0.00 83 1008.4
20260506001747 9 347 4.8 12.9 0.00 0.00 0.00 83 1008.6
20260506000745 9 8 6.4 12.9 0.00 0.00 0.00 82 1008.6
20260506000247 9 49 4.8 12.9 0.00 0.00 0.00 82 1008.7
20260505235745 9 334 4.8 12.9 0.00 0.00 0.00 82 1008.8
20260505235242 9 1 4.8 12.9 0.00 0.00 0.00 82 1008.9
20260505234750 9 346 4.8 12.9 0.00 0.00 0.00 82 1009.0
20260505234242 9 20 4.8 11.3 0.00 0.00 0.00 83 1009.0
20260505233740 9 350 4.8 11.3 0.00 0.00 0.00 83 1009.1
20260505233242 9 37 4.8 12.9 0.00 0.00 0.00 83 1009.1
20260505232739 9 28 4.8 12.9 0.00 0.00 0.00 83 1009.1
20260505231739 9 1 6.4 14.5 0.00 0.00 0.00 83 1009.0
20260505231234 9 27 6.4 14.5 0.00 0.00 0.00 83 1009.1
20260505230735 9 346 6.4 14.5 0.00 0.00 0.00 83 1009.1
20260505230234 9 342 4.8 14.5 0.00 0.00 0.00 82 1009.1
20260505225745 9 63 4.8 12.9 0.00 0.00 0.00 82 1009.1
20260505225232 9 40 6.4 14.5 0.00 0.00 0.00 82 1009.1
20260505224734 9 44 6.4 14.5 0.00 0.00 0.00 82 1009.1
20260505224229 9 354 6.4 16.1 0.00 0.00 0.00 82 1009.2
20260505223230 9 21 6.4 16.1 0.00 0.00 0.00 81 1009.3
20260505222722 9 28 6.4 16.1 0.00 0.00 0.00 81 1009.3
20260505222222 9 30 6.4 16.1 0.00 0.00 0.00 81 1009.4
20260505221722 9 18 6.4 14.5 0.00 0.00 0.00 81 1009.3
20260505221223 9 8 6.4 14.5 0.00 0.00 0.00 81 1009.4
20260505220724 9 37 6.4 14.5 0.00 0.00 0.00 81 1009.4
20260505220220 9 30 6.4 17.7 0.00 0.00 0.00 80 1009.5
20260505215222 9 351 4.8 11.3 0.00 0.00 0.00 81 1009.6
20260505214215 9 18 6.4 14.5 0.00 0.00 0.00 81 1009.6
20260505213715 9 15 6.4 17.7 0.00 0.00 0.00 81 1009.6
20260505213215 9 15 6.4 17.7 0.00 0.00 0.00 81 1009.7
20260505212212 9 28 4.8 12.9 0.00 0.00 0.00 81 1009.8
20260505211713 9 1 4.8 12.9 0.00 0.00 0.00 81 1009.8
20260505211210 10 100 4.8 12.9 0.00 0.00 0.00 81 1009.8
20260505210711 10 84 4.8 16.1 0.00 0.00 0.00 81 1009.8
20260505210211 10 20 6.4 16.1 0.00 0.00 0.00 81 1009.7
20260505205709 10 9 4.8 11.3 0.00 0.00 0.00 81 1009.9
20260505205210 10 25 4.8 22.5 0.00 0.00 0.00 81 1009.9
20260505204708 10 18 4.8 22.5 0.00 0.00 0.00 81 1010.0
20260505204208 10 18 6.4 22.5 0.00 0.00 0.00 81 1009.9
20260505203706 10 322 6.4 22.5 0.00 0.00 0.00 81 1009.9
20260505203206 10 25 6.4 16.1 0.00 0.00 0.00 81 1010.0
20260505202702 10 52 6.4 20.9 0.00 0.00 0.00 81 1010.0
20260505202201 10 83 6.4 20.9 0.00 0.00 0.00 81 1010.1
20260505201702 10 51 6.4 19.3 0.00 0.00 0.00 81 1010.0
20260505201159 10 25 6.4 19.3 0.00 0.00 0.00 81 1009.9
20260505200700 10 343 8.0 19.3 0.00 0.00 0.00 81 1010.0
20260505200200 10 352 8.0 17.7 0.00 0.00 0.00 81 1009.9
20260505195156 10 18 6.4 17.7 0.00 0.00 0.00 82 1009.9
20260505194656 10 6 6.4 19.3 0.00 0.00 0.00 82 1009.9
20260505194155 10 11 8.0 19.3 0.00 0.00 0.00 82 1009.8
20260505193654 10 341 8.0 20.9 0.00 0.00 0.00 82 1009.8
20260505193155 10 348 8.0 20.9 0.00 0.00 0.00 82 1009.8
20260505192652 10 1 8.0 19.3 0.00 0.00 0.00 82 1009.8
20260505192152 10 353 8.0 19.3 0.00 0.00 0.00 82 1009.8
20260505190647 10 356 8.0 17.7 0.00 0.00 0.00 82 1009.6
20260505190147 10 353 8.0 22.5 0.00 0.00 0.00 82 1009.5
20260505185145 10 322 6.4 16.1 0.00 0.00 0.00 82 1009.4
20260505184644 10 32 6.4 20.9 0.00 0.00 0.00 81 1009.5
20260505184143 10 44 8.0 20.9 0.00 0.00 0.00 81 1009.4
20260505183143 10 21 9.7 20.9 0.00 0.00 0.00 81 1009.3
20260505181641 10 4 8.0 19.3 0.00 0.00 0.00 81 1009.3
20260505181136 10 46 8.0 19.3 0.00 0.00 0.00 81 1009.3
20260505180635 10 356 8.0 19.3 0.00 0.00 0.00 81 1009.3
20260505180135 10 13 6.4 20.9 0.00 0.00 0.00 81 1009.3
20260505175634 11 20 4.8 20.9 0.00 0.00 0.00 81 1009.2
20260505175135 11 110 4.8 22.5 0.00 0.00 0.00 81 1009.3
20260505174633 11 346 8.0 22.5 0.00 0.00 0.00 81 1009.3
20260505174136 11 15 8.0 22.5 0.00 0.00 0.00 81 1009.2
20260505173632 11 23 8.0 22.5 0.00 0.00 0.00 80 1009.3
20260505173137 11 1 8.0 22.5 0.00 0.00 0.00 80 1009.3
20260505172634 11 353 8.0 22.5 0.00 0.00 0.00 80 1009.3
20260505172131 11 39 9.7 24.1 0.00 0.00 0.00 79 1009.4
20260505171631 11 135 8.0 24.1 0.00 0.00 0.00 79 1009.4
20260505171130 11 347 6.4 17.7 0.00 0.00 0.00 79 1009.3
20260505165626 11 1 8.0 19.3 0.00 0.00 0.00 78 1009.4
20260505164627 11 32 8.0 24.1 0.00 0.00 0.00 77 1009.4
20260505164126 12 39 8.0 24.1 0.00 0.00 0.00 77 1009.5
20260505163627 12 75 8.0 22.5 0.00 0.00 0.00 77 1009.4
20260505163121 12 352 9.7 22.5 0.00 0.00 0.00 76 1009.4
20260505162622 12 18 9.7 24.1 0.00 0.00 0.00 75 1009.5
20260505162116 12 30 9.7 24.1 0.00 0.00 0.00 75 1009.4
20260505161617 12 16 8.0 19.3 0.00 0.00 0.00 75 1009.4
20260505161116 12 329 8.0 19.3 0.00 0.00 0.00 74 1009.4
20260505160618 12 18 6.4 16.1 0.00 0.00 0.00 73 1009.4
20260505160115 12 74 6.4 16.1 0.00 0.00 0.00 73 1009.4
20260505152621 12 344 8.0 19.3 0.00 0.00 0.00 74 1009.6
20260505151610 12 37 8.0 20.9 0.00 0.00 0.00 75 1009.6
20260505150701 12 25 6.4 17.7 0.00 0.00 0.00 75 1009.8
20260505150202 12 349 8.0 19.3 0.00 0.00 0.00 75 1009.7
20260505140201 12 89 8.0 16.1 0.00 0.00 0.00 78 1010.4